     2              OBSERVATION DATA    GPS                 RINEX VERSION / TYPE
ASHTORIN 02 - MAR - 99 13:49                                PGM / RUN BY / DATE
                                                            COMMENT
Original Marker Name: SALTON                                COMMENT
Campaign Name: oldbeach 99                                  COMMENT
4-Character Station Name: SALT                              COMMENT
6-Character Antenna Code: DMRCHT                            COMMENT
Vertical Measurement Point: BCR                             COMMENT
Vertical Offset to Rinex Ref. Point: 0.0349                 COMMENT
Radial Measurement Point: ECF                               COMMENT
Radial Offset to Rinex Ref. Point: 0.1896                   COMMENT
Antenna Height from Field Measurement: 0.8900 m             COMMENT
Original XYZ: -2452347.9427 -4791294.5624 3410776.6894      COMMENT
New XYZ position is based on association with SCEC monument COMMENT
E1D0L3B2+0011. Position of that monument is believed to be  COMMENT
valid to within 1 m horizontally; vertical accuracy         COMMENT
should be no worse than 3-times this value.                 COMMENT
                                                            COMMENT
Revised Rinex header created by UCSD GPS archive for        COMMENT
GSAC on 02-Jun-1999 (1999:153) 02:24:52 GMT                 COMMENT
For assistance contact dagnew@ucsd.edu or hjohnson@ucsd.edu COMMENT
                                                            COMMENT
SALTON                                                      MARKER NAME
                                                            MARKER NUMBER
SJB SCRIPPS INSTITUTION OF OCEANOGRAPHY                     OBSERVER / AGENCY
1378 ASHTECH Z12-XII3 1E951D0                               REC # / TYPE / VERS
12653 DORNE-MARGOL. TYPE T                                  ANT # / TYPE
 -2320346.0000 -4796526.0000  3493945.0000                  APPROX POSITION XYZ
        0.8347        0.0000        0.0000                  ANTENNA: DELTA H/E/N
     1     1     0                                          WAVELENGTH FACT L1/2
     7    L1    L2    C1    P1    P2    D1    D2            # / TYPES OF OBSERV
    30                                                      INTERVAL
  1999     2    17    23    52    0.000000                  TIME OF FIRST OBS
  1999     2    17    23    59   30.000000                  TIME OF LAST OBS
                                                            END OF HEADER
 99  2 17 23 52  0.0000000  0  3  4  7  9                            0.000000000
     39098.011 9     27524.02348  21218804.450    21218804.5074   21218811.4334
        -0.000          -0.000
     49391.897 9     34862.43846  23783252.462    23783251.9484   23783263.1474
        -0.000          -0.000
     25464.320 9     17889.05648  22002540.391    22002539.8294   22002547.8714
        -0.000          -0.000
 99  2 17 23 52 30.0000000  0  3  4  7  9                            0.000000000
     52084.963 9     37643.73048  21221275.754    21221275.8464   21221282.7684
        -0.000          -0.000
     64865.561 9     46919.79346  23786195.909    23786196.4294   23786207.5074
        -0.000          -0.000
     34131.313 9     24642.53948  22004189.387    22004189.1774   22004197.1674
        -0.000          -0.000
 99  2 17 23 53  0.0000000  0  3  4  7  9                            0.000000000
     65436.175 9     48047.27048  21223816.438    21223816.4984   21223823.4634
        -0.000          -0.000
     80320.011 9     58962.18546  23789137.412    23789137.2934   23789148.2224
        -0.000          -0.000
     43172.472 9     31687.57948  22005909.975    22005909.6864   22005917.7044
        -0.000          -0.000
 99  2 17 23 53 30.0000000  0  3  4  7  9                            0.000000000
     79099.381 9     58693.91848  21226416.469    21226416.5874   21226423.5314
        -0.000          -0.000
     95710.412 9     70954.68246  23792066.393    23792066.0164   23792076.8804
        -0.000          -0.000
     52522.899 9     38973.61348  22007689.382    22007689.0644   22007697.0894
        -0.000          -0.000
 99  2 17 23 54  0.0000000  0  3  4  7  9                            0.000000000
     93061.062 9     69573.14748  21229073.347    21229073.4284   21229080.3574
        -0.000          -0.000
    111039.056 9     82899.03646  23794983.491    23794983.0364   23794993.9474
        -0.000          -0.000
     62169.953 9     46490.77948  22009525.143    22009524.8734   22009532.8854
        -0.000          -0.000
 99  2 17 23 54 30.0000000  0  3  4  7  9                            0.000000000
    107321.943 9     80685.51948  21231787.182    21231787.2494   21231794.1564
        -0.000          -0.000
    126347.523 9     94827.66645  23797896.640    23797896.1104   23797906.9544
        -0.000          -0.000
     72148.359 9     54266.14748  22011423.953    22011423.7084   22011431.7504
        -0.000          -0.000
 99  2 17 23 55  0.0000000  0  3  4  7  9                            0.000000000
    121935.003 9     92072.31148  21534360.422    21534360.4934   21534367.4444
        -0.000          -0.000
    141682.255 9    106776.76345  24100607.270    24100606.6584   24100617.5504
        -0.000          -0.000
     82505.615 9     62336.72348  22313187.386    22313187.1424   22313195.1804
        -0.000          -0.000
 99  2 17 23 55 30.0000000  0  3  4  7  9                            0.000000000
    136912.948 9    103743.43248  21537210.667    21537210.7494   21537217.7004
        -0.000          -0.000
    157050.948 9    118752.33245  24103531.937    24103531.3424   24103542.2214
        -0.000          -0.000
     93264.136 9     70719.97448  22315234.707    22315234.4654   22315242.4954
        -0.000          -0.000
 99  2 17 23 56  0.0000000  0  3  4  7  9                            0.000000000
    152302.057 9    115734.94048  21540139.148    21540139.2224   21540146.1514
        -0.000          -0.000
    172495.597 9    130787.09546  24106471.030    24106470.3384   24106481.2104
        -0.000          -0.000
    104467.883 9     79450.14448  22317366.756    22317366.5094   22317374.5574
        -0.000          -0.000
 99  2 17 23 56 30.0000000  0  3  4  7  9                            0.000000000
    168078.290 9    128028.10548  21543141.313    21543141.3644   21543148.3034
        -0.000          -0.000
    187972.440 9    142846.94846  24109416.357    24109415.6584   24109426.4424
        -0.000          -0.000
    116073.538 9     88493.49448  22319575.307    22319575.0804   22319583.0904
        -0.000          -0.000
 99  2 17 23 57  0.0000000  0  3  4  7  9                            0.000000000
    184319.147 9    140683.30948  21546231.882    21546231.9244   21546238.8684
        -0.000          -0.000
    203533.019 9    154972.03346  24112377.585    24112376.8094   24112387.6374
        -0.000          -0.000
    128132.705 9     97890.23148  22321870.112    22321869.8914   22321877.8874
        -0.000          -0.000
 99  2 17 23 57 30.0000000  0  3  4  7  9                            0.000000000
    200916.076 9    153615.97248  21549390.149    21549390.2084   21549397.1414
        -0.000          -0.000
    219072.016 9    167080.31146  24115334.636    24115333.8824   24115344.6454
        -0.000          -0.000
    140543.832 9    107561.21748  22324231.856    22324231.6164   22324239.6104
        -0.000          -0.000
 99  2 17 23 58  0.0000000  0  3  4  7  9                            0.000000000
    217876.411 9    166831.80748  21552617.640    21552617.6934   21552624.6194
        -0.000          -0.000
    234589.779 9    179172.02546  24118287.695    24118287.0374   24118297.6304
        -0.000          -0.000
    153311.136 9    117509.75148  22326661.367    22326661.1444   22326669.1844
        -0.000          -0.000
 99  2 17 23 58 30.0000000  0  3  4  7  9                            0.000000000
    235191.062 9    180323.73348  21555912.474    21555912.5524   21555919.5214
        -0.000          -0.000
    250086.003 9    191246.97045  24121236.568    24121235.8764   24121246.5174
        -0.000          -0.000
    166432.826 9    127734.42948  22329158.362    22329158.1454   22329166.2214
        -0.000          -0.000
 99  2 17 23 59  0.0000000  0  3  4  7  9                            0.000000000
    252833.115 9    194070.78248  21559269.677    21559269.7284   21559276.6924
        -0.000          -0.000
    265557.966 9    203302.99445  24124180.753    24124179.9774   24124190.7194
        -0.000          -0.000
    179911.822 9    138237.52548  22331723.362    22331723.1504   22331731.2424
        -0.000          -0.000
